Location: Dappach
(48.9767°N, 9.6998°E)
Time: 21:36:44
(UTC+00:00)

Meteor 1-4 Rocket - Pass Details

Date: 23 May 2024
Orbit: 359 x 380 km, 81.2° (Epoch: 14 June)

Event Time Altitude Azimuth Distance (km) Brightness Sun altitude
Exits shadow 00:56:13 59° 169° (S) 423 1.9 -17.0°
Maximum altitude 00:56:39 78° 100° (E) 375 1.9 -17.0°
Drops below altitude 10° 00:59:35 10° 14° (NNE) 1,357 6.1 -16.8°
Sets 01:01:34 0° 13° (NNE) 2,213 7.5 -16.7°
